| time (UTC) | temp F | wind direction | speed MPH | gust MPH | rain 1hr in | rain 24hr in | rain mn in | humidity % | barometer mb |
| 20260502220146 | 62 | 151 | 2.0 | 6.0 | 0.00 | 0.00 | 0.00 | 35 | |
| 20260502215643 | 62 | 301 | 1.0 | 2.0 | 0.00 | 0.00 | 0.00 | 36 | |
| 20260502215139 | 61 | 356 | 0.0 | 3.0 | 0.00 | 0.00 | 0.00 | 36 | |
| 20260502214637 | 61 | 298 | 0.0 | 6.0 | 0.00 | 0.00 | 0.00 | 37 | |
| 20260502214134 | 62 | 278 | 0.0 | 5.0 | 0.00 | 0.00 | 0.00 | 38 | |
| 20260502213631 | 61 | 252 | 3.0 | 3.0 | 0.00 | 0.00 | 0.00 | 35 | |
| 20260502213128 | 61 | 302 | 3.0 | 3.0 | 0.00 | 0.00 | 0.00 | 33 | |
| 20260502212627 | 61 | 154 | 1.0 | 9.0 | 0.00 | 0.00 | 0.00 | 35 | |
| 20260502212125 | 62 | 170 | 2.0 | 3.0 | 0.00 | 0.00 | 0.00 | 36 | |
| 20260502211620 | 61 | 327 | 0.0 | 5.0 | 0.00 | 0.00 | 0.00 | 36 | |
| 20260502211118 | 62 | 270 | 1.0 | 2.0 | 0.00 | 0.00 | 0.00 | 38 | |
| 20260502210615 | 61 | 345 | 1.0 | 1.0 | 0.00 | 0.00 | 0.00 | 36 | |
| 20260502210112 | 61 | 331 | 0.0 | 2.0 | 0.00 | 0.00 | 0.00 | 35 | |
| 20260502205608 | 61 | 186 | 2.0 | 3.0 | 0.00 | 0.00 | 0.00 | 34 | |
| 20260502205106 | 61 | 339 | 0.0 | 3.0 | 0.00 | 0.00 | 0.00 | 32 | |
| 20260502204602 | 62 | 262 | 0.0 | 2.0 | 0.00 | 0.00 | 0.00 | 37 | |
| 20260502204100 | 61 | 271 | 1.0 | 2.0 | 0.00 | 0.00 | 0.00 | 32 | |
| 20260502203557 | 62 | 255 | 2.0 | 2.0 | 0.00 | 0.00 | 0.00 | 33 | |
| 20260502203054 | 61 | 321 | 2.0 | 6.0 | 0.00 | 0.00 | 0.00 | 38 | |
| 20260502202549 | 60 | 323 | 0.0 | 2.0 | 0.00 | 0.00 | 0.00 | 33 | |
| 20260502202048 | 60 | 242 | 4.0 | 8.0 | 0.00 | 0.00 | 0.00 | 34 | |
| 20260502201544 | 61 | 335 | 0.0 | 3.0 | 0.00 | 0.00 | 0.00 | 39 | |
| 20260502201040 | 60 | 272 | 3.0 | 5.0 | 0.00 | 0.00 | 0.00 | 36 | |
| 20260502200536 | 61 | 285 | 2.0 | 3.0 | 0.00 | 0.00 | 0.00 | 33 | |
| 20260502200035 | 62 | 268 | 2.0 | 5.0 | 0.00 | 0.00 | 0.00 | 38 | |
| 20260502195532 | 61 | 335 | 0.0 | 1.0 | 0.00 | 0.00 | 0.00 | 39 | |
| 20260502195027 | 61 | 346 | 2.0 | 3.0 | 0.00 | 0.00 | 0.00 | 36 | |
| 20260502194525 | 61 | 271 | 1.0 | 2.0 | 0.00 | 0.00 | 0.00 | 38 | |
| 20260502194021 | 61 | 339 | 1.0 | 3.0 | 0.00 | 0.00 | 0.00 | 36 | |
| 20260502193518 | 60 | 350 | 2.0 | 3.0 | 0.00 | 0.00 | 0.00 | 33 | |
| 20260502193015 | 60 | 262 | 2.0 | 5.0 | 0.00 | 0.00 | 0.00 | 36 | |
| 20260502192510 | 60 | 294 | 2.0 | 5.0 | 0.00 | 0.00 | 0.00 | 37 | |
| 20260502192008 | 60 | 303 | 2.0 | 2.0 | 0.00 | 0.00 | 0.00 | 33 | |
| 20260502191505 | 60 | 48 | 3.0 | 5.0 | 0.00 | 0.00 | 0.00 | 36 | |
| 20260502191003 | 60 | 276 | 1.0 | 2.0 | 0.00 | 0.00 | 0.00 | 43 | |
| 20260502190500 | 59 | 304 | 1.0 | 2.0 | 0.00 | 0.00 | 0.00 | 37 | |
| 20260502185956 | 59 | 185 | 2.0 | 7.0 | 0.00 | 0.00 | 0.00 | 39 | |
| 20260502185452 | 59 | 211 | 3.0 | 6.0 | 0.00 | 0.00 | 0.00 | 38 | |
| 20260502184949 | 58 | 291 | 1.0 | 3.0 | 0.00 | 0.00 | 0.00 | 40 | |
| 20260502184444 | 60 | 271 | 2.0 | 2.0 | 0.00 | 0.00 | 0.00 | 38 | |
| 20260502183941 | 59 | 316 | 1.0 | 5.0 | 0.00 | 0.00 | 0.00 | 40 | |
| 20260502183437 | 59 | 330 | 1.0 | 6.0 | 0.00 | 0.00 | 0.00 | 37 | |
| 20260502182932 | 59 | 283 | 2.0 | 2.0 | 0.00 | 0.00 | 0.00 | 41 | |
| 20260502182428 | 59 | 267 | 1.0 | 3.0 | 0.00 | 0.00 | 0.00 | 39 | |
| 20260502181924 | 59 | 209 | 1.0 | 3.0 | 0.00 | 0.00 | 0.00 | 40 | |
| 20260502181423 | 58 | 250 | 1.0 | 6.0 | 0.00 | 0.00 | 0.00 | 40 | |
| 20260502180921 | 59 | 267 | 5.0 | 7.0 | 0.00 | 0.00 | 0.00 | 39 | |
| 20260502180418 | 58 | 319 | 0.0 | 2.0 | 0.00 | 0.00 | 0.00 | 43 | |
| 20260502170336 | 57 | 289 | 2.0 | 5.0 | 0.00 | 0.00 | 0.00 | 41 | |
| 20260502164324 | 56 | 271 | 1.0 | 3.0 | 0.00 | 0.00 | 0.00 | 49 | |
| 20260502163820 | 55 | 327 | 0.0 | 1.0 | 0.00 | 0.00 | 0.00 | 51 | |
| 20260502163316 | 55 | 265 | 0.0 | 8.0 | 0.00 | 0.00 | 0.00 | 50 | |
| 20260502162814 | 55 | 328 | 0.0 | 2.0 | 0.00 | 0.00 | 0.00 | 48 | |
| 20260502162311 | 55 | 331 | 0.0 | 2.0 | 0.00 | 0.00 | 0.00 | 47 | |
| 20260502161808 | 55 | 314 | 2.0 | 3.0 | 0.00 | 0.00 | 0.00 | 44 | |
| 20260502161303 | 54 | 322 | 1.0 | 1.0 | 0.00 | 0.00 | 0.00 | 48 | |
| 20260502160802 | 54 | 289 | 1.0 | 2.0 | 0.00 | 0.00 | 0.00 | 50 | |
| 20260502160301 | 54 | 199 | 2.0 | 5.0 | 0.00 | 0.00 | 0.00 | 47 | |
| 20260502152229 | 53 | 317 | 3.0 | 6.0 | 0.00 | 0.00 | 0.00 | 51 | |
| 20260502151727 | 52 | 280 | 2.0 | 3.0 | 0.00 | 0.00 | 0.00 | 54 | |
| 20260502151224 | 52 | 321 | 0.0 | 3.0 | 0.00 | 0.00 | 0.00 | 55 | |
| 20260502150722 | 52 | 243 | 3.0 | 8.0 | 0.00 | 0.00 | 0.00 | 54 | |
| 20260502150218 | 52 | 267 | 1.0 | 5.0 | 0.00 | 0.00 | 0.00 | 57 | |
| 20260502130607 | 42 | 316 | 0.0 | 0.0 | 0.00 | 0.00 | 0.00 | 69 | |
| 20260502130104 | 41 | 316 | 0.0 | 0.0 | 0.00 | 0.00 | 0.00 | 69 | |
| 20260502123550 | 39 | 303 | 0.0 | 0.0 | 0.00 | 0.00 | 0.00 | 74 | |
| 20260502123046 | 39 | 313 | 0.0 | 1.0 | 0.00 | 0.00 | 0.00 | 73 | |
| 20260502122543 | 39 | 316 | 0.0 | 1.0 | 0.00 | 0.00 | 0.00 | 74 | |
| 20260502122040 | 39 | 314 | 0.0 | 0.0 | 0.00 | 0.00 | 0.00 | 75 | |
| 20260502121537 | 39 | 309 | 0.0 | 0.0 | 0.00 | 0.00 | 0.00 | 75 | |
| 20260502121035 | 39 | 316 | 0.0 | 0.0 | 0.00 | 0.00 | 0.00 | 75 | |
| 20260502120531 | 39 | 317 | 0.0 | 0.0 | 0.00 | 0.00 | 0.00 | 75 | |
| 20260502115526 | 38 | 317 | 0.0 | 0.0 | 0.00 | 0.00 | 0.00 | 74 | |
| 20260502115021 | 38 | 287 | 0.0 | 0.0 | 0.00 | 0.00 | 0.00 | 75 | |
| 20260502114518 | 37 | 315 | 0.0 | 0.0 | 0.00 | 0.00 | 0.00 | 76 | |
| 20260502114015 | 37 | 315 | 0.0 | 0.0 | 0.00 | 0.00 | 0.00 | 77 | |
| 20260502113513 | 37 | 315 | 0.0 | 0.0 | 0.00 | 0.00 | 0.00 | 78 | |
| 20260502113012 | 37 | 315 | 0.0 | 0.0 | 0.00 | 0.00 | 0.00 | 79 | |
| 20260502112509 | 37 | 315 | 0.0 | 0.0 | 0.00 | 0.00 | 0.00 | 80 | |
| 20260502112006 | 36 | 315 | 0.0 | 0.0 | 0.00 | 0.00 | 0.00 | 81 | |
| 20260502111503 | 36 | 315 | 0.0 | 0.0 | 0.00 | 0.00 | 0.00 | 81 | |
| 20260502111001 | 36 | 315 | 0.0 | 0.0 | 0.00 | 0.00 | 0.00 | 81 | |
| 20260502110458 | 36 | 315 | 0.0 | 0.0 | 0.00 | 0.00 | 0.00 | 81 | |
| 20260502105955 | 37 | 315 | 0.0 | 0.0 | 0.00 | 0.00 | 0.00 | 80 | |
| 20260502105453 | 37 | 315 | 0.0 | 0.0 | 0.00 | 0.00 | 0.00 | 80 | |
| 20260502104950 | 37 | 315 | 0.0 | 0.0 | 0.00 | 0.00 | 0.00 | 80 | |
| 20260502104447 | 37 | 315 | 0.0 | 0.0 | 0.00 | 0.00 | 0.00 | 79 | |
| 20260502103945 | 37 | 315 | 0.0 | 0.0 | 0.00 | 0.00 | 0.00 | 79 | |
| 20260502103442 | 37 | 315 | 0.0 | 0.0 | 0.00 | 0.00 | 0.00 | 79 | |
| 20260502102939 | 37 | 315 | 0.0 | 0.0 | 0.00 | 0.00 | 0.00 | 78 | |
| 20260502102436 | 38 | 315 | 0.0 | 0.0 | 0.00 | 0.00 | 0.00 | 78 | |
| 20260502101933 | 38 | 315 | 0.0 | 0.0 | 0.00 | 0.00 | 0.00 | 76 | |
| 20260502101431 | 39 | 315 | 0.0 | 0.0 | 0.00 | 0.00 | 0.00 | 75 | |
| 20260502100929 | 39 | 315 | 0.0 | 0.0 | 0.00 | 0.00 | 0.00 | 74 | |
| 20260502100428 | 39 | 315 | 0.0 | 0.0 | 0.00 | 0.00 | 0.00 | 74 | |
| 20260502091402 | 40 | 315 | 0.0 | 0.0 | 0.00 | 0.00 | 0.00 | 71 | |
| 20260502090859 | 41 | 315 | 0.0 | 0.0 | 0.00 | 0.00 | 0.00 | 71 | |
| 20260502090356 | 40 | 315 | 0.0 | 0.0 | 0.00 | 0.00 | 0.00 | 69 | |
| 20260502071251 | 44 | 313 | 0.0 | 0.0 | 0.00 | 0.00 | 0.00 | 63 | |
| 20260502070749 | 44 | 310 | 0.0 | 1.0 | 0.00 | 0.00 | 0.00 | 62 | |
| 20260502070246 | 45 | 312 | 0.0 | 1.0 | 0.00 | 0.00 | 0.00 | 61 | |
| 20260502065745 | 45 | 312 | 0.0 | 0.0 | 0.00 | 0.00 | 0.00 | 59 | |
| 20260502065243 | 45 | 312 | 0.0 | 0.0 | 0.00 | 0.00 | 0.00 | 59 | |
| 20260502064741 | 46 | 312 | 0.0 | 0.0 | 0.00 | 0.00 | 0.00 | 57 | |
| 20260502064238 | 46 | 312 | 0.0 | 0.0 | 0.00 | 0.00 | 0.00 | 57 | |
| 20260502063735 | 46 | 307 | 1.0 | 2.0 | 0.00 | 0.00 | 0.00 | 56 | |
| 20260502063233 | 46 | 280 | 2.0 | 3.0 | 0.00 | 0.00 | 0.00 | 56 | |
| 20260502062730 | 46 | 308 | 1.0 | 2.0 | 0.00 | 0.00 | 0.00 | 56 | |
| 20260502062228 | 46 | 308 | 1.0 | 3.0 | 0.00 | 0.00 | 0.00 | 55 | |
| 20260502061726 | 47 | 310 | 1.0 | 3.0 | 0.00 | 0.00 | 0.00 | 55 | |
| 20260502061223 | 47 | 310 | 1.0 | 1.0 | 0.00 | 0.00 | 0.00 | 54 | |
| 20260502060718 | 47 | 309 | 1.0 | 2.0 | 0.00 | 0.00 | 0.00 | 54 | |
| 20260502060215 | 47 | 307 | 1.0 | 2.0 | 0.00 | 0.00 | 0.00 | 53 | |
| 20260502055713 | 47 | 299 | 1.0 | 2.0 | 0.00 | 0.00 | 0.00 | 53 | |
| 20260502055210 | 48 | 283 | 3.0 | 3.0 | 0.00 | 0.00 | 0.00 | 54 | |
| 20260502054709 | 48 | 308 | 1.0 | 2.0 | 0.00 | 0.00 | 0.00 | 54 | |
| 20260502054206 | 48 | 309 | 1.0 | 2.0 | 0.00 | 0.00 | 0.00 | 54 | |
| 20260502053704 | 48 | 304 | 2.0 | 3.0 | 0.00 | 0.00 | 0.00 | 54 | |
| 20260502053201 | 48 | 292 | 1.0 | 2.0 | 0.00 | 0.00 | 0.00 | 54 | |
| 20260502052659 | 48 | 307 | 1.0 | 2.0 | 0.00 | 0.00 | 0.00 | 54 | |
| 20260502052157 | 48 | 309 | 0.0 | 2.0 | 0.00 | 0.00 | 0.00 | 55 | |
| 20260502051655 | 48 | 308 | 0.0 | 2.0 | 0.00 | 0.00 | 0.00 | 55 | |
| 20260502051152 | 48 | 306 | 0.0 | 2.0 | 0.00 | 0.00 | 0.00 | 55 | |
| 20260502050649 | 48 | 307 | 1.0 | 3.0 | 0.00 | 0.00 | 0.00 | 56 | |
| 20260502050145 | 48 | 307 | 1.0 | 2.0 | 0.00 | 0.00 | 0.00 | 56 | |
| 20260502045642 | 48 | 311 | 0.0 | 1.0 | 0.00 | 0.00 | 0.00 | 56 | |
| 20260502045139 | 49 | 310 | 1.0 | 1.0 | 0.00 | 0.00 | 0.00 | 56 | |
| 20260502044636 | 49 | 310 | 0.0 | 1.0 | 0.00 | 0.00 | 0.00 | 57 | |
| 20260502044132 | 49 | 310 | 0.0 | 1.0 | 0.00 | 0.00 | 0.00 | 56 | |
| 20260502043630 | 49 | 278 | 2.0 | 2.0 | 0.00 | 0.00 | 0.00 | 55 | |
| 20260502043127 | 49 | 312 | 0.0 | 1.0 | 0.00 | 0.00 | 0.00 | 56 | |
| 20260502042626 | 49 | 311 | 1.0 | 1.0 | 0.00 | 0.00 | 0.00 | 56 | |
| 20260502042124 | 49 | 312 | 0.0 | 0.0 | 0.00 | 0.00 | 0.00 | 57 | |
| 20260502041622 | 49 | 312 | 0.0 | 0.0 | 0.00 | 0.00 | 0.00 | 57 | |
| 20260502041119 | 49 | 309 | 0.0 | 0.0 | 0.00 | 0.00 | 0.00 | 58 | |
| 20260502040615 | 49 | 312 | 0.0 | 0.0 | 0.00 | 0.00 | 0.00 | 59 | |
| 20260502040113 | 49 | 312 | 0.0 | 0.0 | 0.00 | 0.00 | 0.00 | 60 | |
| 20260502035609 | 50 | 312 | 0.0 | 0.0 | 0.00 | 0.00 | 0.00 | 59 | |
| 20260502035106 | 50 | 311 | 0.0 | 0.0 | 0.00 | 0.00 | 0.00 | 59 | |
| 20260502034604 | 50 | 311 | 0.0 | 0.0 | 0.00 | 0.00 | 0.00 | 60 | |
| 20260502034102 | 50 | 311 | 0.0 | 0.0 | 0.00 | 0.00 | 0.00 | 60 | |
| 20260502033600 | 50 | 311 | 0.0 | 0.0 | 0.00 | 0.00 | 0.00 | 60 | |
| 20260502033057 | 50 | 311 | 0.0 | 0.0 | 0.00 | 0.00 | 0.00 | 60 | |
| 20260502032552 | 50 | 311 | 0.0 | 0.0 | 0.00 | 0.00 | 0.00 | 60 | |
| 20260502032049 | 51 | 311 | 0.0 | 0.0 | 0.00 | 0.00 | 0.00 | 60 | |
| 20260502031547 | 51 | 311 | 0.0 | 0.0 | 0.00 | 0.00 | 0.00 | 57 | |
| 20260502031045 | 52 | 311 | 0.0 | 0.0 | 0.00 | 0.00 | 0.00 | 57 | |
| 20260502030544 | 52 | 311 | 0.0 | 0.0 | 0.00 | 0.00 | 0.00 | 54 | |
| 20260502030041 | 52 | 310 | 0.0 | 0.0 | 0.00 | 0.00 | 0.00 | 53 | |
| 20260502025538 | 53 | 310 | 0.0 | 1.0 | 0.00 | 0.00 | 0.00 | 53 | |
| 20260502025036 | 53 | 310 | 0.0 | 0.0 | 0.00 | 0.00 | 0.00 | 53 | |
| 20260502024533 | 53 | 310 | 0.0 | 0.0 | 0.00 | 0.00 | 0.00 | 52 | |
| 20260502024032 | 53 | 305 | 1.0 | 2.0 | 0.00 | 0.00 | 0.00 | 51 | |
| 20260502023529 | 53 | 311 | 0.0 | 0.0 | 0.00 | 0.00 | 0.00 | 51 | |
| 20260502023026 | 54 | 311 | 0.0 | 0.0 | 0.00 | 0.00 | 0.00 | 52 | |
| 20260502022522 | 54 | 311 | 0.0 | 0.0 | 0.00 | 0.00 | 0.00 | 50 | |
| 20260502022020 | 54 | 309 | 0.0 | 0.0 | 0.00 | 0.00 | 0.00 | 50 | |
| 20260502021517 | 55 | 306 | 1.0 | 1.0 | 0.00 | 0.00 | 0.00 | 49 | |
| 20260502021014 | 55 | 309 | 0.0 | 1.0 | 0.00 | 0.00 | 0.00 | 48 | |
| 20260502020512 | 55 | 298 | 1.0 | 2.0 | 0.00 | 0.00 | 0.00 | 48 | |
| 20260502020009 | 55 | 309 | 1.0 | 2.0 | 0.00 | 0.00 | 0.00 | 48 | |
| 20260502015507 | 55 | 309 | 1.0 | 2.0 | 0.00 | 0.00 | 0.00 | 48 | |
| 20260502015002 | 55 | 315 | 0.0 | 0.0 | 0.00 | 0.00 | 0.00 | 48 | |
| 20260502014459 | 55 | 308 | 0.0 | 2.0 | 0.00 | 0.00 | 0.00 | 47 | |
| 20260502013956 | 56 | 301 | 1.0 | 2.0 | 0.00 | 0.00 | 0.00 | 47 | |
| 20260502013452 | 56 | 298 | 1.0 | 2.0 | 0.00 | 0.00 | 0.00 | 46 | |
| 20260502012948 | 56 | 306 | 0.0 | 1.0 | 0.00 | 0.00 | 0.00 | 46 | |
| 20260502012446 | 57 | 308 | 0.0 | 0.0 | 0.00 | 0.00 | 0.00 | 45 | |
| 20260502011944 | 57 | 306 | 1.0 | 2.0 | 0.00 | 0.00 | 0.00 | 44 | |
| 20260502011439 | 57 | 308 | 1.0 | 1.0 | 0.00 | 0.00 | 0.00 | 44 | |
| 20260502010937 | 58 | 274 | 3.0 | 3.0 | 0.00 | 0.00 | 0.00 | 43 | |
| 20260502010433 | 58 | 306 | 1.0 | 2.0 | 0.00 | 0.00 | 0.00 | 43 | |
| 20260502005929 | 59 | 318 | 1.0 | 3.0 | 0.00 | 0.00 | 0.00 | 43 | |
| 20260502005427 | 59 | 306 | 1.0 | 3.0 | 0.00 | 0.00 | 0.00 | 42 | |
| 20260502004926 | 59 | 266 | 2.0 | 2.0 | 0.00 | 0.00 | 0.00 | 42 | |
| 20260502004421 | 59 | 299 | 2.0 | 6.0 | 0.00 | 0.00 | 0.00 | 40 | |
| 20260502003918 | 59 | 302 | 1.0 | 3.0 | 0.00 | 0.00 | 0.00 | 40 | |
| 20260502003416 | 60 | 307 | 1.0 | 3.0 | 0.00 | 0.00 | 0.00 | 40 | |
| 20260502002912 | 60 | 186 | 2.0 | 3.0 | 0.00 | 0.00 | 0.00 | 42 | |
| 20260502002409 | 60 | 304 | 1.0 | 2.0 | 0.00 | 0.00 | 0.00 | 40 | |
| 20260502001906 | 60 | 294 | 1.0 | 3.0 | 0.00 | 0.00 | 0.00 | 39 | |
| 20260502001404 | 61 | 294 | 1.0 | 2.0 | 0.00 | 0.00 | 0.00 | 41 | |
| 20260502000901 | 61 | 307 | 2.0 | 5.0 | 0.00 | 0.00 | 0.00 | 38 | |
| 20260502000402 | 61 | 238 | 3.0 | 6.0 | 0.00 | 0.00 | 0.00 | 38 | |
| 20260501235855 | 61 | 310 | 1.0 | 2.0 | 0.00 | 0.00 | 0.00 | 39 | |
| 20260501235351 | 62 | 246 | 3.0 | 5.0 | 0.00 | 0.00 | 0.00 | 37 | |
| 20260501234846 | 62 | 303 | 0.0 | 3.0 | 0.00 | 0.00 | 0.00 | 39 | |
| 20260501234344 | 61 | 280 | 2.0 | 3.0 | 0.00 | 0.00 | 0.00 | 37 | |
| 20260501233842 | 61 | 276 | 1.0 | 3.0 | 0.00 | 0.00 | 0.00 | 39 | |
| 20260501233339 | 62 | 291 | 2.0 | 6.0 | 0.00 | 0.00 | 0.00 | 38 | |
| 20260501232835 | 62 | 268 | 4.0 | 6.0 | 0.00 | 0.00 | 0.00 | 36 | |
| 20260501232332 | 62 | 294 | 1.0 | 3.0 | 0.00 | 0.00 | 0.00 | 38 | |
| 20260501231830 | 62 | 309 | 3.0 | 6.0 | 0.00 | 0.00 | 0.00 | 38 | |
| 20260501231327 | 61 | 234 | 4.0 | 5.0 | 0.00 | 0.00 | 0.00 | 38 | |
| 20260501230826 | 62 | 205 | 4.0 | 7.0 | 0.00 | 0.00 | 0.00 | 39 | |
| 20260501230324 | 62 | 262 | 1.0 | 3.0 | 0.00 | 0.00 | 0.00 | 40 | |
| 20260501225821 | 62 | 299 | 2.0 | 3.0 | 0.00 | 0.00 | 0.00 | 36 | |
| 20260501225319 | 62 | 278 | 2.0 | 6.0 | 0.00 | 0.00 | 0.00 | 38 | |
| 20260501224815 | 62 | 303 | 2.0 | 5.0 | 0.00 | 0.00 | 0.00 | 38 | |
| 20260501224312 | 62 | 271 | 2.0 | 5.0 | 0.00 | 0.00 | 0.00 | 38 | |
| 20260501223809 | 62 | 170 | 1.0 | 5.0 | 0.00 | 0.00 | 0.00 | 39 | |
| 20260501223305 | 62 | 291 | 3.0 | 7.0 | 0.00 | 0.00 | 0.00 | 38 | |
| 20260501222801 | 63 | 260 | 2.0 | 3.0 | 0.00 | 0.00 | 0.00 | 38 | |
| 20260501222258 | 63 | 253 | 3.0 | 7.0 | 0.00 | 0.00 | 0.00 | 37 | |
| 20260501221755 | 62 | 321 | 2.0 | 6.0 | 0.00 | 0.00 | 0.00 | 41 | |
| 20260501221252 | 62 | 257 | 4.0 | 6.0 | 0.00 | 0.00 | 0.00 | 35 | |
| 20260501220750 | 62 | 199 | 2.0 | 8.0 | 0.00 | 0.00 | 0.00 | 38 |